| time (UTC) | temp F | wind direction | speed MPH | gust MPH | rain 1hr in | rain 24hr in | rain mn in | humidity % | barometer mb |
| 20260505080523 | 88 | 46 | 5.0 | 13.0 | 0.00 | 0.00 | 0.00 | 66 | 1009.5 |
| 20260505080041 | 89 | 15 | 5.0 | 13.0 | 0.00 | 0.00 | 0.00 | 65 | 1009.5 |
| 20260505075521 | 90 | 103 | 6.0 | 12.0 | 0.00 | 0.00 | 0.00 | 65 | 1009.5 |
| 20260505075024 | 89 | 84 | 3.0 | 12.0 | 0.00 | 0.00 | 0.00 | 65 | 1009.4 |
| 20260505074543 | 89 | 108 | 3.0 | 10.0 | 0.00 | 0.00 | 0.00 | 66 | 1009.4 |
| 20260505074022 | 89 | 46 | 4.0 | 10.0 | 0.00 | 0.00 | 0.00 | 67 | 1009.5 |
| 20260505073522 | 89 | 92 | 4.0 | 11.0 | 0.00 | 0.00 | 0.00 | 67 | 1009.5 |
| 20260505073036 | 89 | 46 | 5.0 | 11.0 | 0.00 | 0.00 | 0.00 | 68 | 1009.4 |
| 20260505072522 | 89 | 75 | 6.0 | 13.0 | 0.00 | 0.00 | 0.00 | 67 | 1009.6 |
| 20260505072022 | 89 | 103 | 6.0 | 13.0 | 0.00 | 0.00 | 0.00 | 67 | 1009.6 |
| 20260505071541 | 89 | 121 | 10.0 | 14.0 | 0.00 | 0.00 | 0.00 | 66 | 1009.6 |
| 20260505071022 | 89 | 107 | 10.0 | 14.0 | 0.00 | 0.00 | 0.00 | 65 | 1009.6 |
| 20260505070522 | 89 | 113 | 9.0 | 14.0 | 0.00 | 0.00 | 0.00 | 66 | 1009.6 |
| 20260505070047 | 90 | 107 | 6.0 | 12.0 | 0.00 | 0.00 | 0.00 | 65 | 1009.6 |
| 20260505065522 | 90 | 88 | 4.0 | 12.0 | 0.00 | 0.00 | 0.00 | 64 | 1009.5 |
| 20260505065022 | 90 | 79 | 7.0 | 12.0 | 0.00 | 0.00 | 0.00 | 64 | 1009.5 |
| 20260505064553 | 90 | 104 | 7.0 | 12.0 | 0.00 | 0.00 | 0.00 | 63 | 1009.5 |
| 20260505064023 | 89 | 65 | 7.0 | 12.0 | 0.00 | 0.00 | 0.00 | 65 | 1009.5 |
| 20260505063522 | 90 | 116 | 7.0 | 13.0 | 0.00 | 0.00 | 0.00 | 65 | 1009.6 |
| 20260505063043 | 90 | 83 | 9.0 | 13.0 | 0.00 | 0.00 | 0.00 | 64 | 1009.6 |
| 20260505062521 | 90 | 117 | 8.0 | 12.0 | 0.00 | 0.00 | 0.00 | 65 | 1009.6 |
| 20260505062023 | 90 | 100 | 4.0 | 13.0 | 0.00 | 0.00 | 0.00 | 66 | 1009.5 |
| 20260505061540 | 90 | 89 | 8.0 | 13.0 | 0.00 | 0.00 | 0.00 | 65 | 1009.5 |
| 20260505061020 | 90 | 75 | 4.0 | 12.0 | 0.00 | 0.00 | 0.00 | 64 | 1009.5 |
| 20260505060523 | 90 | 68 | 8.0 | 12.0 | 0.00 | 0.00 | 0.00 | 64 | 1009.6 |
| 20260505060041 | 90 | 102 | 5.0 | 11.0 | 0.00 | 0.00 | 0.00 | 64 | 1009.6 |
| 20260505055520 | 90 | 136 | 8.0 | 13.0 | 0.00 | 0.00 | 0.00 | 65 | 1009.6 |
| 20260505055020 | 90 | 153 | 8.0 | 13.0 | 0.00 | 0.00 | 0.00 | 65 | 1009.6 |
| 20260505054541 | 89 | 111 | 9.0 | 13.0 | 0.00 | 0.00 | 0.00 | 63 | 1009.6 |
| 20260505054023 | 90 | 128 | 9.0 | 13.0 | 0.00 | 0.00 | 0.00 | 63 | 1009.7 |
| 20260505053520 | 90 | 148 | 8.0 | 11.0 | 0.00 | 0.00 | 0.00 | 63 | 1009.8 |
| 20260505053036 | 90 | 148 | 4.0 | 10.0 | 0.00 | 0.00 | 0.00 | 63 | 1009.8 |
| 20260505052520 | 90 | 111 | 5.0 | 10.0 | 0.00 | 0.00 | 0.00 | 63 | 1009.8 |
| 20260505052020 | 90 | 99 | 7.0 | 10.0 | 0.00 | 0.00 | 0.00 | 62 | 1009.9 |
| 20260505051539 | 91 | 55 | 7.0 | 10.0 | 0.00 | 0.00 | 0.00 | 60 | 1010.0 |
| 20260505051022 | 91 | 141 | 5.0 | 9.0 | 0.00 | 0.00 | 0.00 | 63 | 1010.0 |
| 20260505050523 | 91 | 72 | 2.0 | 10.0 | 0.00 | 0.00 | 0.00 | 60 | 1009.9 |
| 20260505041553 | 90 | 122 | 7.0 | 12.0 | 0.00 | 0.00 | 0.00 | 64 | 1010.5 |
| 20260505041020 | 89 | 136 | 7.0 | 17.0 | 0.00 | 0.00 | 0.00 | 65 | 1010.6 |
| 20260505040523 | 89 | 141 | 6.0 | 17.0 | 0.00 | 0.00 | 0.00 | 67 | 1010.7 |
| 20260505040039 | 90 | 148 | 9.0 | 14.0 | 0.00 | 0.00 | 0.00 | 65 | 1010.8 |
| 20260505035522 | 90 | 104 | 8.0 | 13.0 | 0.00 | 0.00 | 0.00 | 63 | 1010.8 |
| 20260505035021 | 89 | 119 | 8.0 | 12.0 | 0.00 | 0.00 | 0.00 | 67 | 1010.8 |
| 20260505034541 | 89 | 162 | 6.0 | 11.0 | 0.00 | 0.00 | 0.00 | 68 | 1010.9 |
| 20260505034026 | 89 | 141 | 9.0 | 12.0 | 0.00 | 0.00 | 0.00 | 67 | 1011.0 |
| 20260505033526 | 89 | 140 | 7.0 | 12.0 | 0.00 | 0.00 | 0.00 | 67 | 1011.0 |
| 20260505033040 | 89 | 109 | 7.0 | 10.0 | 0.00 | 0.00 | 0.00 | 69 | 1011.0 |
| 20260505032525 | 89 | 133 | 6.0 | 10.0 | 0.00 | 0.00 | 0.00 | 65 | 1011.0 |
| 20260505032026 | 89 | 177 | 4.0 | 8.0 | 0.00 | 0.00 | 0.00 | 67 | 1011.0 |
| 20260505031540 | 90 | 137 | 3.0 | 8.0 | 0.00 | 0.00 | 0.00 | 62 | 1011.0 |
| 20260505031023 | 89 | 117 | 2.0 | 8.0 | 0.00 | 0.00 | 0.00 | 62 | 1011.1 |
| 20260505030523 | 90 | 124 | 5.0 | 8.0 | 0.00 | 0.00 | 0.00 | 63 | 1011.1 |
| 20260505030038 | 90 | 88 | 3.0 | 10.0 | 0.00 | 0.00 | 0.00 | 60 | 1011.2 |
| 20260505025520 | 90 | 98 | 5.0 | 10.0 | 0.00 | 0.00 | 0.00 | 64 | 1011.1 |
| 20260505025021 | 90 | 130 | 4.0 | 12.0 | 0.00 | 0.00 | 0.00 | 64 | 1011.2 |
| 20260505024544 | 89 | 150 | 7.0 | 15.0 | 0.00 | 0.00 | 0.00 | 60 | 1011.2 |
| 20260505024020 | 90 | 108 | 5.0 | 15.0 | 0.00 | 0.00 | 0.00 | 63 | 1011.2 |
| 20260505023522 | 89 | 134 | 9.0 | 15.0 | 0.00 | 0.00 | 0.00 | 62 | 1011.3 |
| 20260505023043 | 89 | 153 | 2.0 | 10.0 | 0.00 | 0.00 | 0.00 | 61 | 1011.3 |
| 20260505022523 | 89 | 96 | 5.0 | 12.0 | 0.00 | 0.00 | 0.00 | 60 | 1011.5 |
| 20260505022020 | 89 | 105 | 5.0 | 12.0 | 0.00 | 0.00 | 0.00 | 60 | 1011.5 |
| 20260505021544 | 89 | 138 | 7.0 | 14.0 | 0.00 | 0.00 | 0.00 | 60 | 1011.5 |
| 20260505021023 | 89 | 119 | 9.0 | 14.0 | 0.00 | 0.00 | 0.00 | 60 | 1011.4 |
| 20260505020521 | 88 | 136 | 7.0 | 10.0 | 0.00 | 0.00 | 0.00 | 61 | 1011.5 |
| 20260505020038 | 88 | 132 | 6.0 | 10.0 | 0.00 | 0.00 | 0.00 | 62 | 1011.5 |
| 20260505015520 | 88 | 131 | 4.0 | 10.0 | 0.00 | 0.00 | 0.00 | 64 | 1011.5 |
| 20260505015024 | 88 | 126 | 7.0 | 10.0 | 0.00 | 0.00 | 0.00 | 62 | 1011.6 |
| 20260505014542 | 88 | 160 | 7.0 | 11.0 | 0.00 | 0.00 | 0.00 | 63 | 1011.6 |
| 20260505014020 | 88 | 134 | 7.0 | 11.0 | 0.00 | 0.00 | 0.00 | 63 | 1011.7 |
| 20260505013521 | 88 | 130 | 7.0 | 11.0 | 0.00 | 0.00 | 0.00 | 63 | 1011.6 |
| 20260505013036 | 87 | 167 | 4.0 | 10.0 | 0.00 | 0.00 | 0.00 | 63 | 1011.8 |
| 20260505012520 | 87 | 159 | 5.0 | 11.0 | 0.00 | 0.00 | 0.00 | 66 | 1011.9 |
| 20260505012020 | 87 | 138 | 6.0 | 11.0 | 0.00 | 0.00 | 0.00 | 66 | 1011.8 |
| 20260505011536 | 87 | 140 | 6.0 | 10.0 | 0.00 | 0.00 | 0.00 | 67 | 1011.8 |
| 20260505011020 | 86 | 193 | 4.0 | 10.0 | 0.00 | 0.00 | 0.00 | 68 | 1011.7 |
| 20260505010520 | 87 | 154 | 5.0 | 8.0 | 0.00 | 0.00 | 0.00 | 67 | 1011.7 |
| 20260505010043 | 87 | 288 | 2.0 | 5.0 | 0.00 | 0.00 | 0.00 | 66 | 1011.6 |
| 20260505005523 | 87 | 231 | 2.0 | 5.0 | 0.00 | 0.00 | 0.00 | 67 | 1011.6 |
| 20260505005020 | 86 | 285 | 1.0 | 2.0 | 0.00 | 0.00 | 0.00 | 67 | 1011.7 |
| 20260505004538 | 85 | 207 | 1.0 | 2.0 | 0.00 | 0.00 | 0.00 | 69 | 1011.7 |
| 20260505004020 | 86 | 155 | 1.0 | 3.0 | 0.00 | 0.00 | 0.00 | 65 | 1011.8 |
| 20260505003527 | 85 | 0 | 0.0 | 3.0 | 0.00 | 0.00 | 0.00 | 68 | 1011.8 |
| 20260505003039 | 85 | 228 | 1.0 | 3.0 | 0.00 | 0.00 | 0.00 | 70 | 1011.8 |
| 20260505002520 | 85 | 248 | 2.0 | 3.0 | 0.00 | 0.00 | 0.00 | 68 | 1011.8 |
| 20260505002021 | 85 | 215 | 1.0 | 2.0 | 0.00 | 0.00 | 0.00 | 69 | 1011.7 |
| 20260505001548 | 84 | 256 | 1.0 | 2.0 | 0.00 | 0.00 | 0.00 | 72 | 1011.7 |
| 20260505001020 | 84 | 252 | 1.0 | 3.0 | 0.00 | 0.00 | 0.00 | 74 | 1011.6 |
| 20260505000520 | 84 | 196 | 2.0 | 3.0 | 0.00 | 0.00 | 0.00 | 72 | 1011.8 |
| 20260505000041 | 84 | 233 | 2.0 | 3.0 | 0.00 | 0.00 | 0.00 | 71 | 1011.8 |
| 20260504235520 | 84 | 221 | 1.0 | 2.0 | 0.00 | 0.00 | 0.00 | 71 | 1011.9 |
| 20260504235020 | 84 | 94 | 0.0 | 3.0 | 0.00 | 0.00 | 0.00 | 73 | 1011.8 |
| 20260504234533 | 83 | 94 | 1.0 | 3.0 | 0.00 | 0.00 | 0.00 | 73 | 1011.9 |
| 20260504234020 | 83 | 88 | 1.0 | 6.0 | 0.00 | 0.00 | 0.00 | 73 | 1011.7 |
| 20260504233521 | 83 | 113 | 3.0 | 6.0 | 0.00 | 0.00 | 0.00 | 74 | 1011.7 |
| 20260504233038 | 82 | 107 | 0.0 | 2.0 | 0.00 | 0.00 | 0.00 | 75 | 1011.8 |
| 20260504232524 | 82 | 0 | 0.0 | 0.0 | 0.00 | 0.00 | 0.00 | 76 | 1011.7 |
| 20260504232020 | 82 | 0 | 0.0 | 0.0 | 0.00 | 0.00 | 0.00 | 76 | 1011.8 |
| 20260504231555 | 81 | 0 | 0.0 | 0.0 | 0.00 | 0.00 | 0.00 | 77 | 1011.7 |
| 20260504231024 | 81 | 0 | 0.0 | 0.0 | 0.00 | 0.00 | 0.00 | 78 | 1011.7 |
| 20260504230520 | 81 | 0 | 0.0 | 0.0 | 0.00 | 0.00 | 0.00 | 79 | 1011.7 |
| 20260504230038 | 80 | 0 | 0.0 | 0.0 | 0.00 | 0.00 | 0.00 | 80 | 1011.6 |
| 20260504225524 | 79 | 0 | 0.0 | 0.0 | 0.00 | 0.00 | 0.00 | 82 | 1011.6 |
| 20260504225021 | 79 | 0 | 0.0 | 0.0 | 0.00 | 0.00 | 0.00 | 82 | 1011.6 |
| 20260504224540 | 78 | 0 | 0.0 | 2.0 | 0.00 | 0.00 | 0.00 | 83 | 1011.6 |
| 20260504224023 | 78 | 0 | 0.0 | 2.0 | 0.00 | 0.00 | 0.00 | 83 | 1011.4 |
| 20260504223523 | 77 | 0 | 0.0 | 2.0 | 0.00 | 0.00 | 0.00 | 84 | 1011.5 |
| 20260504223041 | 77 | 336 | 0.0 | 2.0 | 0.00 | 0.00 | 0.00 | 85 | 1011.4 |
| 20260504222522 | 76 | 336 | 0.0 | 2.0 | 0.00 | 0.00 | 0.00 | 87 | 1011.3 |
| 20260504222021 | 76 | 336 | 1.0 | 1.0 | 0.00 | 0.00 | 0.00 | 86 | 1011.2 |
| 20260504221543 | 76 | 336 | 1.0 | 1.0 | 0.00 | 0.00 | 0.00 | 85 | 1011.3 |
| 20260504221020 | 76 | 321 | 1.0 | 2.0 | 0.00 | 0.00 | 0.00 | 86 | 1011.3 |
| 20260504220521 | 75 | 321 | 0.0 | 2.0 | 0.00 | 0.00 | 0.00 | 86 | 1011.2 |
| 20260504220040 | 75 | 0 | 0.0 | 1.0 | 0.00 | 0.00 | 0.00 | 88 | 1011.4 |
| 20260504215521 | 75 | 32 | 0.0 | 1.0 | 0.00 | 0.00 | 0.00 | 88 | 1011.4 |
| 20260504215023 | 75 | 0 | 0.0 | 0.0 | 0.00 | 0.00 | 0.00 | 88 | 1011.4 |
| 20260504214538 | 75 | 0 | 0.0 | 2.0 | 0.00 | 0.00 | 0.00 | 88 | 1011.3 |
| 20260504214025 | 75 | 0 | 0.0 | 2.0 | 0.00 | 0.00 | 0.00 | 88 | 1011.3 |
| 20260504213522 | 75 | 249 | 0.0 | 2.0 | 0.00 | 0.00 | 0.00 | 89 | 1011.3 |
| 20260504213034 | 75 | 249 | 1.0 | 1.0 | 0.00 | 0.00 | 0.00 | 89 | 1011.1 |
| 20260504212520 | 75 | 249 | 0.0 | 2.0 | 0.00 | 0.00 | 0.00 | 89 | 1011.1 |
| 20260504212020 | 75 | 0 | 0.0 | 2.0 | 0.00 | 0.00 | 0.00 | 89 | 1011.1 |
| 20260504211539 | 75 | 243 | 1.0 | 2.0 | 0.00 | 0.00 | 0.00 | 89 | 1011.1 |
| 20260504211022 | 75 | 309 | 0.0 | 2.0 | 0.00 | 0.00 | 0.00 | 89 | 1011.1 |
| 20260504210520 | 75 | 0 | 0.0 | 2.0 | 0.00 | 0.00 | 0.00 | 89 | 1011.1 |
| 20260504210100 | 75 | 0 | 0.0 | 1.0 | 0.00 | 0.00 | 0.00 | 88 | 1011.1 |
| 20260504205520 | 75 | 0 | 0.0 | 2.0 | 0.00 | 0.00 | 0.00 | 88 | 1011.0 |
| 20260504205021 | 75 | 309 | 1.0 | 2.0 | 0.00 | 0.00 | 0.00 | 88 | 1011.0 |
| 20260504204547 | 76 | 309 | 1.0 | 2.0 | 0.00 | 0.00 | 0.00 | 87 | 1011.0 |
| 20260504204022 | 76 | 360 | 0.0 | 2.0 | 0.00 | 0.00 | 0.00 | 87 | 1010.9 |
| 20260504203521 | 76 | 0 | 0.0 | 2.0 | 0.00 | 0.00 | 0.00 | 87 | 1010.9 |
| 20260504203045 | 76 | 360 | 0.0 | 1.0 | 0.00 | 0.00 | 0.00 | 86 | 1010.8 |
| 20260504202521 | 76 | 360 | 0.0 | 2.0 | 0.00 | 0.00 | 0.00 | 85 | 1010.7 |
| 20260504202021 | 76 | 360 | 1.0 | 2.0 | 0.00 | 0.00 | 0.00 | 84 | 1010.7 |
| 20260504201545 | 76 | 360 | 1.0 | 2.0 | 0.00 | 0.00 | 0.00 | 85 | 1010.7 |
| 20260504201022 | 75 | 9 | 1.0 | 2.0 | 0.00 | 0.00 | 0.00 | 86 | 1010.7 |
| 20260504200522 | 75 | 325 | 0.0 | 2.0 | 0.00 | 0.00 | 0.00 | 86 | 1010.6 |
| 20260504200036 | 75 | 325 | 1.0 | 2.0 | 0.00 | 0.00 | 0.00 | 87 | 1010.7 |
| 20260504195520 | 76 | 0 | 0.0 | 2.0 | 0.00 | 0.00 | 0.00 | 88 | 1010.7 |
| 20260504195023 | 76 | 0 | 0.0 | 2.0 | 0.00 | 0.00 | 0.00 | 88 | 1010.7 |
| 20260504194559 | 76 | 0 | 0.0 | 2.0 | 0.00 | 0.00 | 0.00 | 87 | 1010.7 |
| 20260504194022 | 76 | 0 | 0.0 | 2.0 | 0.00 | 0.00 | 0.00 | 87 | 1010.6 |
| 20260504193523 | 76 | 302 | 0.0 | 2.0 | 0.00 | 0.00 | 0.00 | 87 | 1010.4 |
| 20260504193038 | 76 | 302 | 2.0 | 2.0 | 0.00 | 0.00 | 0.00 | 86 | 1010.6 |
| 20260504192522 | 77 | 314 | 1.0 | 2.0 | 0.00 | 0.00 | 0.00 | 86 | 1010.7 |
| 20260504192024 | 77 | 0 | 0.0 | 2.0 | 0.00 | 0.00 | 0.00 | 85 | 1010.6 |
| 20260504191546 | 77 | 0 | 0.0 | 2.0 | 0.00 | 0.00 | 0.00 | 83 | 1010.6 |
| 20260504191021 | 77 | 40 | 1.0 | 2.0 | 0.00 | 0.00 | 0.00 | 83 | 1010.6 |
| 20260504190523 | 77 | 31 | 0.0 | 4.0 | 0.00 | 0.00 | 0.00 | 83 | 1010.6 |
| 20260504190045 | 77 | 31 | 1.0 | 4.0 | 0.00 | 0.00 | 0.00 | 83 | 1010.7 |
| 20260504185525 | 77 | 49 | 2.0 | 3.0 | 0.00 | 0.00 | 0.00 | 83 | 1010.8 |
| 20260504185024 | 77 | 70 | 0.0 | 2.0 | 0.00 | 0.00 | 0.00 | 84 | 1010.8 |
| 20260504184539 | 77 | 0 | 0.0 | 2.0 | 0.00 | 0.00 | 0.00 | 84 | 1010.8 |
| 20260504184020 | 76 | 61 | 0.0 | 2.0 | 0.00 | 0.00 | 0.00 | 84 | 1010.9 |
| 20260504183523 | 76 | 72 | 0.0 | 2.0 | 0.00 | 0.00 | 0.00 | 85 | 1010.9 |
| 20260504183039 | 76 | 48 | 0.0 | 2.0 | 0.00 | 0.00 | 0.00 | 85 | 1010.9 |
| 20260504182520 | 76 | 0 | 0.0 | 3.0 | 0.00 | 0.00 | 0.00 | 85 | 1011.0 |
| 20260504182023 | 76 | 57 | 0.0 | 3.0 | 0.00 | 0.00 | 0.00 | 85 | 1011.0 |
| 20260504181545 | 76 | 38 | 1.0 | 4.0 | 0.00 | 0.00 | 0.00 | 85 | 1011.0 |
| 20260504181021 | 76 | 22 | 2.0 | 4.0 | 0.00 | 0.00 | 0.00 | 85 | 1011.0 |
| 20260504180522 | 76 | 34 | 1.0 | 4.0 | 0.00 | 0.00 | 0.00 | 85 | 1011.1 |
| 20260504180104 | 77 | 38 | 0.0 | 2.0 | 0.00 | 0.00 | 0.00 | 86 | 1011.0 |
| 20260504175520 | 77 | 38 | 0.0 | 2.0 | 0.00 | 0.00 | 0.00 | 85 | 1011.1 |
| 20260504175020 | 77 | 38 | 0.0 | 2.0 | 0.00 | 0.00 | 0.00 | 86 | 1011.1 |
| 20260504174538 | 77 | 38 | 0.0 | 2.0 | 0.00 | 0.00 | 0.00 | 85 | 1011.1 |
| 20260504174024 | 78 | 0 | 0.0 | 2.0 | 0.00 | 0.00 | 0.00 | 87 | 1011.2 |
| 20260504173524 | 78 | 0 | 0.0 | 2.0 | 0.00 | 0.00 | 0.00 | 88 | 1011.2 |
| 20260504173048 | 78 | 0 | 0.0 | 0.0 | 0.00 | 0.00 | 0.00 | 87 | 1011.3 |
| 20260504172524 | 78 | 0 | 0.0 | 0.0 | 0.00 | 0.00 | 0.00 | 87 | 1011.4 |
| 20260504172025 | 78 | 0 | 0.0 | 0.0 | 0.00 | 0.00 | 0.00 | 87 | 1011.4 |
| 20260504171538 | 78 | 0 | 0.0 | 2.0 | 0.00 | 0.00 | 0.00 | 86 | 1011.5 |
| 20260504171024 | 77 | 0 | 0.0 | 2.0 | 0.00 | 0.00 | 0.00 | 86 | 1011.6 |
| 20260504170524 | 78 | 0 | 0.0 | 2.0 | 0.00 | 0.00 | 0.00 | 87 | 1011.6 |
| 20260504151026 | 80 | 0 | 0.0 | 0.0 | 0.00 | 0.00 | 0.00 | 80 | 1012.4 |
| 20260504150524 | 80 | 0 | 0.0 | 0.0 | 0.00 | 0.00 | 0.00 | 80 | 1012.4 |
| 20260504141024 | 81 | 40 | 1.0 | 1.0 | 0.00 | 0.00 | 0.00 | 76 | 1012.3 |
| 20260504140524 | 81 | 0 | 0.0 | 2.0 | 0.00 | 0.00 | 0.00 | 74 | 1012.2 |
| 20260504130525 | 83 | 118 | 2.0 | 3.0 | 0.00 | 0.00 | 0.00 | 70 | 1011.6 |
| 20260504110527 | 85 | 150 | 10.0 | 15.0 | 0.00 | 0.00 | 0.00 | 63 | 1010.5 |
| 20260504100524 | 88 | 136 | 10.0 | 14.0 | 0.00 | 0.00 | 0.00 | 59 | 1009.6 |
| 20260504081542 | 94 | 142 | 10.0 | 17.0 | 0.00 | 0.00 | 0.00 | 54 | 1008.8 |
| 20260504081028 | 94 | 128 | 11.0 | 18.0 | 0.00 | 0.00 | 0.00 | 52 | 1008.8 |